Regional Weather Roundup
Issued by NWS Sioux Falls, SD

Home | Current Version | Previous Version | Text Only | Print | Product List | Glossary On
Versions: 1 2 3 4 5 6 7 8 9 10 11 12 13 14 15 16 17 18 19 20 21 22 23 24 25 26 27 28 29 30 31 32 33 34 35 36 37 38 39 40 41 42 43 44 45 46 47 48 49 50
000
ASUS43 KFSD 232210
RWRFSD

WEATHER ROUNDUP FOR SE SOUTH DAKOTA/SW MINNESOTA/NW IOWA
NATIONAL WEATHER SERVICE SIOUX FALLS SD
400 PM CST THU FEB 23 2017

NOTE: "FAIR" INDICATES FEW OR NO CLOUDS BELOW 12,000 FEET WITH NO
SIGNIFICANT WEATHER AND OR OBSTRUCTIONS TO VISIBILITY.


SDZ038>040-050-052>070-232300-
SOUTHEAST SOUTH DAKOTA

CITY           SKY/WX    TMP DP  RH WIND       PRES   REMARKS
BROOKINGS      MOSUNNY   29  23  78 NE16      29.87R WCI  17
CHAMBERLAIN    LGT SNOW  32  28  86 N18G24    29.86S WCI  20
HURON          CLOUDY    31  23  72 NE20G25   29.91F WCI  19
MADISON        LGT SNOW  28  28 100 NE15G23   29.85S WCI  17
MITCHELL       LGT SNOW  32  27  81 NE24      29.87F WCI  19
SIOUX FALLS    SNOW      30  29  96 NE20      29.82F VSB 1/4 WCI  17
WINNER         LGT SNOW  30  27  88 N24G32    29.81F VSB 1   WCI  16
YANKTON        CLOUDY    32  27  80 N20G35    29.75R WCI  20
$$

MNZ071-072-080-081-089-090-097-098-232300-
SOUTHWEST MINNESOTA

CITY           SKY/WX    TMP DP  RH WIND       PRES   REMARKS
FAIRMONT       CLOUDY    34  27  75 N15G24    29.80F WCI  24
JACKSON          N/A     32  28  86 N20G28    29.82F WCI  20
LUVERNE        SNOW      30  27  86 NE22      29.80F VSB 1/4 WCI  17
MARSHALL       NOT AVBL
MONTEVIDEO     CLOUDY    30  27  86 NE14      29.95R WCI  20
PIPESTONE      FLURRIES  30  25  80 NE17G24   29.83F WCI  18
REDWOOD FALLS  CLOUDY    32  23  69 NE12      29.91R WCI  23
TRACY          LGT SNOW  31  28  86 N15       29.88F WCI  21
WINDOM         FLURRIES  30  27  86 N20G26    29.83F WCI  18
WORTHINGTON    LGT SNOW  28  27  93 N22G29    29.81S VSB 1   WCI  15
$$

IAZ001>003-012>014-020>022-031-032-NEZ013-014-SDZ071-232300-
NORTHWEST IOWA

CITY           SKY/WX    TMP DP  RH WIND       PRES   REMARKS
CHEROKEE       LGT SNOW  32  32 100 NE16G24   29.73F WCI  21
DENISON        CLOUDY    36  34  93 NE17G31   29.63F
ESTHERVILLE    CLOUDY    32  28  85 N22       29.79R WCI  19
LE MARS        LGT RAIN  34  28  80 NE28G40   29.73F WCI  20
ORANGE CITY    LGT SNOW  34  30  86 NE16G24   29.75S WCI  23
SHELDON        CLOUDY    32  32 100 NE24G33   29.75S WCI  19
SIOUX CITY     FLURRIES  36  30  79 NE22G33   29.68F
SPENCER        LGT SNOW  33  29  85 NE28G36   29.77S FOG     WCI  20
STORM LAKE     LGT SNOW  32  30  93 NE29      29.70F WCI  18
$$

ABBREVIATIONS USED IN REMARKS
   TC - TEMPERATURE IN CELSIUS
  WCI - WIND CHILL INDEX
   HX - HEAT INDEX
  VSB - VISIBILITY




USA.gov is the U.S. government's official web portal to all federal, state and local government web resources and services.